GW4987 Weather Reports


time (UTC)temp
C
wind
direction
speed
KPH
gust
KPH
rain 1hr
cm
rain 24hr
cm
rain mn
cm
humidity
%
barometer
mb
20260901070503 19 180 9.7 9.7 0.00 0.00 0.00 62 1022.4
20260901070003 19 180 9.7 9.7 0.00 0.00 0.00 62 1022.3
20260901065503 19 180 9.7 9.7 0.00 0.00 0.00 62 1022.3
20260901065004 19 180 9.7 9.7 0.00 0.00 0.00 62 1022.3
20260901064504 19 180 9.7 9.7 0.00 0.00 0.00 62 1022.3
20260901031504 20 131 3.2 3.2 0.00 0.00 0.00 65 1021.5
20260901031004 20 131 3.2 3.2 0.00 0.00 0.00 65 1021.6
20260901025003 20 131 3.2 3.2 0.00 0.00 0.00 65 1021.5
20260901024503 20 131 3.2 3.2 0.00 0.00 0.00 65 1021.5
20260901024004 20 131 3.2 3.2 0.00 0.00 0.00 65 1021.3
20260901023503 20 131 3.2 3.2 0.00 0.00 0.00 65 1021.3
20260901023003 20 131 3.2 3.2 0.00 0.00 0.00 65 1021.1
20260901022503 20 131 3.2 3.2 0.00 0.00 0.00 65 1021.1
20260901022004 20 131 3.2 3.2 0.00 0.00 0.00 65 1021.0
20260901021504 20 114 8.0 8.0 0.00 0.00 0.00 63 1021.3
20260901021004 20 114 8.0 8.0 0.00 0.00 0.00 63 1020.9
20260901020504 20 114 8.0 8.0 0.00 0.00 0.00 63 1021.0
20260901020004 20 114 8.0 8.0 0.00 0.00 0.00 63 1021.0
20260901015504 20 113 4.8 8.0 0.00 0.00 0.00 63 1021.0
20260901013503 21 170 8.0 8.0 0.00 0.00 0.00 60 1021.1
20260901013003 21 167 4.8 6.4 0.00 0.00 0.00 60 1021.1
20260901012503 21 204 4.8 4.8 0.00 0.00 0.00 61 1021.0
20260901012003 21 143 8.0 8.0 0.00 0.00 0.00 61 1021.4
20260901011504 21 118 6.4 6.4 0.00 0.00 0.00 60 1020.9
20260901011004 21 125 8.0 8.0 0.00 0.00 0.00 60 1021.1
20260901010503 21 125 6.4 8.0 0.00 0.00 0.00 58 1021.1
20260901010004 21 125 6.4 8.0 0.00 0.00 0.00 58 1021.3
20260901005503 21 125 6.4 8.0 0.00 0.00 0.00 58 1021.4
20260901005003 21 125 6.4 8.0 0.00 0.00 0.00 58 1021.0
20260901004504 21 145 9.7 11.3 0.00 0.00 0.00 58 1021.3
20260901004003 21 145 4.8 11.3 0.00 0.00 0.00 58 1021.1
20260901003503 21 130 4.8 6.4 0.00 0.00 0.00 58 1021.3
20260901003003 21 150 3.2 11.3 0.00 0.00 0.00 58 1021.4
20260901002503 21 149 9.7 11.3 0.00 0.00 0.00 58 1021.4
20260901002004 21 181 6.4 17.7 0.00 0.00 0.00 58 1021.1
20260901001504 22 161 9.7 11.3 0.00 0.00 0.00 57 1021.3
20260831232504 23 185 12.9 14.5 0.00 0.00 0.00 56 1021.5
20260831232004 23 182 12.9 19.3 0.00 0.00 0.00 56 1021.5
20260831231504 22 210 14.5 20.9 0.00 0.00 0.00 56 1021.5
20260831231003 23 250 14.5 19.3 0.00 0.00 0.00 56 1021.5
20260831230503 23 186 8.0 22.5 0.00 0.00 0.00 55 1021.7
20260831230004 23 213 14.5 20.9 0.00 0.00 0.00 54 1021.5
20260831225504 23 181 17.7 24.1 0.00 0.00 0.00 54 1021.4
20260831225004 23 199 19.3 24.1 0.00 0.00 0.00 53 1021.5
20260831224504 23 205 12.9 16.1 0.00 0.00 0.00 54 1021.4
20260831224003 24 147 9.7 20.9 0.00 0.00 0.00 52 1021.5
20260831223503 24 212 17.7 24.1 0.00 0.00 0.00 52 1021.6
20260831223004 24 260 11.3 17.7 0.00 0.00 0.00 51 1021.7
20260831221004 24 207 12.9 14.5 0.00 0.00 0.00 52 1021.4
20260831220504 25 202 4.8 20.9 0.00 0.00 0.00 52 1021.7
20260831220004 23 217 17.7 19.3 0.00 0.00 0.00 54 1021.6
20260831215504 25 209 11.3 16.1 0.00 0.00 0.00 51 1021.6
20260831215004 25 204 9.7 30.6 0.00 0.00 0.00 50 1021.7
20260831214504 25 202 11.3 24.1 0.00 0.00 0.00 50 1021.8
20260831214004 25 201 20.9 22.5 0.00 0.00 0.00 51 1021.8
20260831213504 25 148 8.0 24.1 0.00 0.00 0.00 51 1021.8
20260831213004 26 191 19.3 24.1 0.00 0.00 0.00 49 1021.8
20260831212504 25 282 4.8 20.9 0.00 0.00 0.00 51 1022.2
20260831212004 25 200 4.8 20.9 0.00 0.00 0.00 52 1022.0
20260831211504 25 216 22.5 27.4 0.00 0.00 0.00 52 1022.1
20260831211003 25 81 4.8 24.1 0.00 0.00 0.00 50 1022.2
20260831210504 24 135 11.3 17.7 0.00 0.00 0.00 52 1022.2
20260831210004 25 150 14.5 17.7 0.00 0.00 0.00 49 1022.3
20260831205503 25 130 16.1 24.1 0.00 0.00 0.00 51 1022.3
20260831205008 25 121 6.4 14.5 0.00 0.00 0.00 49 1022.3
20260831204516 25 79 3.2 11.3 0.00 0.00 0.00 49 1022.5
20260831200004 24 123 14.5 17.7 0.00 0.00 0.00 56 1023.0
20260831195004 23 248 3.2 11.3 0.00 0.00 0.00 60 1022.8
20260831194504 22 117 4.8 17.7 0.00 0.00 0.00 60 1022.9
20260831194004 22 110 8.0 20.9 0.00 0.00 0.00 62 1023.4
20260831193504 22 199 12.9 12.9 0.00 0.00 0.00 62 1023.4
20260831193003 22 170 12.9 19.3 0.00 0.00 0.00 62 1023.4
20260831192503 22 149 4.8 11.3 0.00 0.00 0.00 62 1023.4
20260831192003 22 212 6.4 16.1 0.00 0.00 0.00 64 1023.1
20260831191504 22 202 12.9 12.9 0.00 0.00 0.00 62 1023.2
20260831191004 23 94 0.0 4.8 0.00 0.00 0.00 60 1023.4
20260831190504 22 357 3.2 6.4 0.00 0.00 0.00 62 1023.2
20260831190004 22 291 3.2 12.9 0.00 0.00 0.00 61 1023.4
20260831185504 23 119 8.0 11.3 0.00 0.00 0.00 59 1023.6
20260831185003 22 10 4.8 11.3 0.00 0.00 0.00 62 1023.6
20260831184503 22 106 6.4 6.4 0.00 0.00 0.00 62 1023.7
20260831184004 22 116 14.5 16.1 0.00 0.00 0.00 62 1023.4
20260831183504 22 192 6.4 17.7 0.00 0.00 0.00 63 1023.4
20260831183004 22 97 4.8 20.9 0.00 0.00 0.00 64 1023.6
20260831182504 22 152 4.8 8.0 0.00 0.00 0.00 63 1023.4
20260831182004 22 160 8.0 14.5 0.00 0.00 0.00 63 1023.5
20260831181504 21 144 6.4 17.7 0.00 0.00 0.00 66 1023.2
20260831181004 22 119 20.9 22.5 0.00 0.00 0.00 62 1023.2
20260831180503 22 220 6.4 14.5 0.00 0.00 0.00 64 1023.5
20260831180003 22 141 8.0 16.1 0.00 0.00 0.00 63 1023.2
20260831175504 22 138 4.8 14.5 0.00 0.00 0.00 65 1023.4
20260831173504 21 149 6.4 12.9 0.00 0.00 0.00 68 1023.2
20260831173004 20 111 8.0 25.7 0.00 0.00 0.00 71 1023.0
20260831172504 20 110 11.3 14.5 0.00 0.00 0.00 72 1023.2
20260831172004 20 137 12.9 19.3 0.00 0.00 0.00 72 1023.0
20260831171504 20 144 6.4 16.1 0.00 0.00 0.00 72 1023.4
20260831171004 19 175 8.0 22.5 0.00 0.00 0.00 72 1023.1
20260831170504 19 147 8.0 17.7 0.00 0.00 0.00 73 1022.9
20260831170003 19 115 4.8 20.9 0.00 0.00 0.00 73 1023.0
20260831165503 19 134 3.2 20.9 0.00 0.00 0.00 72 1023.2
20260831165003 19 175 11.3 20.9 0.00 0.00 0.00 71 1023.0
20260831164503 19 136 12.9 25.7 0.00 0.00 0.00 71 1023.0
20260831164004 20 163 8.0 20.9 0.00 0.00 0.00 69 1022.9
20260831163503 20 141 22.5 27.4 0.00 0.00 0.00 67 1022.9
20260831163003 20 135 14.5 19.3 0.00 0.00 0.00 67 1023.0
20260831162504 20 125 8.0 12.9 0.00 0.00 0.00 66 1022.8
20260831162004 20 112 8.0 14.5 0.00 0.00 0.00 63 1022.8
20260831161503 20 118 9.7 11.3 0.00 0.00 0.00 62 1022.6
20260831161004 20 95 6.4 11.3 0.00 0.00 0.00 62 1022.6
20260831153504 20 204 14.5 17.7 0.00 0.00 0.00 59 1022.4
20260831153004 19 131 3.2 8.0 0.00 0.00 0.00 63 1022.4
20260831152504 18 211 17.7 20.9 0.00 0.00 0.00 62 1022.4
20260831152004 18 211 17.7 20.9 0.00 0.00 0.00 62 1022.3
20260831151504 18 211 17.7 20.9 0.00 0.00 0.00 62 1022.3
20260831151004 18 211 17.7 20.9 0.00 0.00 0.00 62 1022.3
20260831144004 17 221 0.0 4.8 0.00 0.00 0.00 65 1022.2
20260831143504 17 221 0.0 4.8 0.00 0.00 0.00 65 1022.1
20260831143004 17 221 0.0 4.8 0.00 0.00 0.00 65 1022.4
20260831142503 17 221 0.0 4.8 0.00 0.00 0.00 65 1022.4
20260831142003 17 221 0.0 4.8 0.00 0.00 0.00 65 1022.4
20260831141504 17 221 0.0 4.8 0.00 0.00 0.00 65 1022.3
20260831135004 16 226 3.2 3.2 0.00 0.00 0.00 67 1022.1
20260831133004 16 226 3.2 3.2 0.00 0.00 0.00 67 1021.9
20260831132504 16 226 3.2 3.2 0.00 0.00 0.00 67 1021.8
20260831132004 16 226 3.2 3.2 0.00 0.00 0.00 67 1021.9
20260831131503 16 226 3.2 3.2 0.00 0.00 0.00 67 1021.6
20260831131004 16 226 3.2 3.2 0.00 0.00 0.00 67 1021.7
20260831130504 16 226 3.2 3.2 0.00 0.00 0.00 67 1021.9
20260831130004 16 226 3.2 3.2 0.00 0.00 0.00 67 1021.5
20260831125503 16 226 3.2 3.2 0.00 0.00 0.00 67 1021.5
20260831111003 15 281 4.8 6.4 0.00 0.00 0.00 76 1020.9
20260831110503 15 281 4.8 6.4 0.00 0.00 0.00 76 1020.9
20260831110004 15 281 4.8 6.4 0.00 0.00 0.00 76 1021.4
20260831104004 15 281 4.8 6.4 0.00 0.00 0.00 76 1021.4
20260831103504 15 281 4.8 6.4 0.00 0.00 0.00 76 1021.3
20260831103005 15 281 4.8 6.4 0.00 0.00 0.00 76 1021.4
20260831102503 15 281 4.8 6.4 0.00 0.00 0.00 76 1021.6
20260831102004 15 281 4.8 6.4 0.00 0.00 0.00 76 1021.5